Location: Beadle
(51.4667°N, 109.0000°W)
Time: 21:21:09
(UTC+00:00)

DIWATA 2B (PO-101) - Pass Details

Date: 02 July 2022
Orbit: 583 x 599 km, 98.0° (Epoch: 07 August)

Event Time Altitude Azimuth Distance (km) Brightness Sun altitude
Exits shadow 08:13:58 - 136° (SE) 2,185 ? -14.6°
Reaches altitude 10° 08:14:37 10° 132° (SE) 1,939 ? -14.5°
Maximum altitude 08:18:28 36° 66° (ENE) 962 ? -14.4°
Drops below altitude 10° 08:22:21 10° 0° (N) 1,953 ? -14.3°
Sets 08:24:38 0° 352° (N) 2,859 ? -14.2°
